FW9333 Weather Reports


time (UTC)temp
C
wind
direction
speed
KPH
gust
KPH
rain 1hr
cm
rain 24hr
cm
rain mn
cm
humidity
%
barometer
mb
20260504081538 8 76 0.0 0.0 0.00 0.00 0.00 76 1013.4
20260504044529 7 76 0.0 0.0 0.00 0.00 0.00 73 1014.5
20260504043022 7 76 0.0 0.0 0.00 0.00 0.00 72 1014.5
20260504041520 7 76 0.0 0.0 0.00 0.00 0.00 69 1014.4
20260504040018 7 76 0.0 0.0 0.00 0.00 0.00 67 1014.4
20260504034520 7 76 0.0 0.0 0.00 0.00 0.00 69 1014.5
20260504033017 8 76 0.0 0.0 0.00 0.00 0.00 68 1014.5
20260504031517 8 76 0.0 0.0 0.00 0.00 0.00 66 1014.5
20260504030019 8 76 0.0 0.0 0.00 0.00 0.00 65 1014.7
20260504024517 8 76 0.0 0.0 0.00 0.00 0.00 68 1014.7
20260504023016 8 76 0.0 0.0 0.00 0.00 0.00 68 1014.6
20260504021515 9 76 0.0 0.0 0.00 0.00 0.00 67 1014.6
20260504020019 9 76 0.0 0.0 0.00 0.00 0.00 67 1014.5
20260504014515 10 76 0.0 0.0 0.00 0.00 0.00 68 1014.6
20260504013023 10 76 0.0 0.0 0.00 0.00 0.00 66 1014.6
20260504011513 10 76 0.0 0.0 0.00 0.00 0.00 66 1014.4
20260504010013 10 76 0.0 0.0 0.00 0.00 0.00 66 1014.3
20260504004513 10 76 0.0 0.0 0.00 0.00 0.00 66 1014.3
20260504003022 11 76 0.0 0.0 0.00 0.00 0.00 65 1014.3
20260504001512 11 76 0.0 0.0 0.00 0.00 0.00 63 1014.2
20260504000011 11 76 0.0 0.0 0.00 0.00 0.00 63 1014.2
20260503234511 12 76 0.0 0.0 0.00 0.00 0.00 61 1014.3
20260503233010 12 76 0.0 1.6 0.00 0.00 0.00 60 1014.3
20260503231510 12 74 0.0 1.6 0.00 0.00 0.00 59 1014.3
20260503230011 13 35 0.0 8.0 0.00 0.00 0.00 46 1014.2
20260503224511 13 72 0.0 3.2 0.00 0.00 0.00 47 1014.4
20260503223006 13 57 1.6 8.0 0.00 0.00 0.00 44 1014.4
20260503221507 13 117 0.0 6.4 0.00 0.00 0.00 39 1014.6
20260503220015 13 113 0.0 4.8 0.00 0.00 0.00 45 1014.6
20260503214505 14 15 0.0 3.2 0.00 0.00 0.00 42 1014.7
20260503213004 14 99 0.0 11.3 0.00 0.00 0.00 41 1014.6
20260503211505 14 209 0.0 8.0 0.00 0.00 0.00 42 1014.7
20260503210002 14 160 0.0 6.4 0.00 0.00 0.00 44 1014.7
20260503204601 15 109 0.0 11.3 0.00 0.00 0.00 40 1014.9
20260503203110 14 98 1.6 8.0 0.00 0.00 0.00 37 1015.0
20260503201600 15 15 0.0 11.3 0.00 0.00 0.00 39 1015.3
20260503200056 15 33 1.6 9.7 0.00 0.00 0.00 39 1015.4
20260503194558 15 90 0.0 11.3 0.00 0.00 0.00 40 1015.6
20260503193053 15 49 1.6 12.9 0.00 0.00 0.00 35 1016.0
20260503191551 15 156 0.0 6.4 0.00 0.00 0.00 40 1016.2
20260503190048 15 248 0.0 16.1 0.00 0.00 0.00 37 1016.4
20260503184603 14 89 0.0 4.8 0.00 0.00 0.00 37 1016.5
20260503183049 14 130 3.2 11.3 0.00 0.00 0.00 41 1016.6
20260503181546 14 37 0.0 9.7 0.00 0.00 0.00 39 1016.8
20260503180040 13 38 1.6 12.9 0.00 0.00 0.00 41 1017.0
20260503174539 13 74 0.0 9.7 0.00 0.00 0.00 38 1017.2
20260503173040 13 96 0.0 6.4 0.00 0.00 0.00 41 1017.4
20260503171559 13 45 3.2 19.3 0.00 0.00 0.00 44 1017.4